This is the latest recevied weather packets stored in our database for station/object SP5EB-3. If no packets are shown the sender has not sent any weather packets the latest 10 day(s).
| Time | Temp. | Humidity | Pressure | Rain* | Wind** | Luminosity | Snow |
|---|---|---|---|---|---|---|---|
| 1777362346 | 7.22° C | 99% | 1023 hPa | - | - | - | - |
| 1777362039 | 7.22° C | 99% | 1022.9 hPa | - | - | - | - |
| 1777361733 | 6.67° C | 99% | 1022.9 hPa | - | - | - | - |
| 1777361426 | 6.67° C | 99% | 1023 hPa | - | - | - | - |
| 1777361120 | 6.67° C | 99% | 1022.8 hPa | - | - | - | - |
| 1777360813 | 6.11° C | 99% | 1022.9 hPa | - | - | - | - |
| 1777360506 | 6.11° C | 99% | 1022.9 hPa | - | - | - | - |
| 1777360200 | 5.56° C | 99% | 1023 hPa | - | - | - | - |
| 1777359894 | 5.56° C | 99% | 1023 hPa | - | - | - | - |
| 1777359587 | 5° C | 99% | 1022.9 hPa | - | - | - | - |
| 1777358975 | 5° C | 99% | 1022.9 hPa | - | - | - | - |
| 1777358668 | 4.44° C | 99% | 1022.9 hPa | - | - | - | - |
| 1777358361 | 4.44° C | 99% | 1022.9 hPa | - | - | - | - |
| 1777357749 | 3.89° C | 99% | 1022.7 hPa | - | - | - | - |
| 1777357443 | 3.89° C | 99% | 1022.8 hPa | - | - | - | - |
| 1777357137 | 3.33° C | 99% | 1022.6 hPa | - | - | - | - |
| 1777356830 | 3.33° C | 99% | 1022.6 hPa | - | - | - | - |
| 1777356524 | 2.78° C | 99% | 1022.6 hPa | - | - | - | - |
| 1777356218 | 2.78° C | 1% | 1022.7 hPa | - | - | - | - |
| 1777355606 | 2.22° C | 1% | 1022.5 hPa | - | - | - | - |
| 1777355301 | 2.22° C | 1% | 1022.6 hPa | - | - | - | - |
| 1777354994 | 1.67° C | 1% | 1022.6 hPa | - | - | - | - |
| 1777354688 | 1.67° C | 1% | 1022.5 hPa | - | - | - | - |
| 1777354382 | 1.67° C | 1% | 1022.6 hPa | - | - | - | - |
| 1777353770 | 1.67° C | 1% | 1022.4 hPa | - | - | - | - |
* Rain since midnight (hover to see other rain measurements)
** Current wind speed in m/s (hover to see current wind gust speed)